This is the latest recevied weather packets stored in our database for station/object N8QQQ. If no packets are shown the sender has not sent any weather packets the latest 10 day(s).
| Time | Temp. | Humidity | Pressure | Rain* | Wind** | Luminosity | Snow |
|---|---|---|---|---|---|---|---|
| 1778114761 | 3.33° C | 59% | 1012.2 hPa | 0 mm | - | 3 W/m² | - |
| 1778114459 | 3.33° C | 58% | 1011.9 hPa | 0 mm | - | 3 W/m² | - |
| 1778114154 | 3.33° C | 58% | 1012.2 hPa | 0 mm | - | 4 W/m² | - |
| 1778113850 | 3.33° C | 58% | 1012 hPa | 0 mm | - | 5 W/m² | - |
| 1778113547 | 3.33° C | 58% | 1012 hPa | 0 mm | - | 6 W/m² | - |
| 1778113242 | 3.33° C | 58% | 1012.2 hPa | 0 mm | - | 8 W/m² | - |
| 1778112939 | 3.33° C | 57% | 1011.9 hPa | 0 mm | - | 11 W/m² | - |
| 1778112637 | 3.89° C | 57% | 1011.8 hPa | 0 mm | - | 13 W/m² | - |
| 1778112333 | 3.89° C | 57% | 1011.8 hPa | 0 mm | - | 15 W/m² | - |
| 1778112028 | 3.89° C | 55% | 1011.8 hPa | 0 mm | - | 15 W/m² | - |
| 1778111726 | 3.89° C | 56% | 1011.7 hPa | 0 mm | - | 17 W/m² | - |
| 1778111421 | 3.89° C | 55% | 1011.8 hPa | 0 mm | - | 17 W/m² | - |
| 1778111119 | 3.89° C | 56% | 1011.9 hPa | 0 mm | - | 17 W/m² | - |
| 1778110816 | 3.89° C | 56% | 1011.9 hPa | 0 mm | - | 18 W/m² | - |
| 1778110513 | 3.89° C | 55% | 1011.9 hPa | 0 mm | - | 18 W/m² | - |
| 1778110210 | 3.89° C | 54% | 1011.8 hPa | 0 mm | - | 18 W/m² | - |
| 1778109906 | 3.89° C | 53% | 1011.7 hPa | 0 mm | - | 19 W/m² | - |
| 1778109601 | 3.89° C | 52% | 1011.7 hPa | 0 mm | - | 23 W/m² | - |
| 1778109299 | 3.89° C | 52% | 1011.6 hPa | 0 mm | - | 26 W/m² | - |
| 1778108997 | 3.89° C | 51% | 1011.8 hPa | 0 mm | - | 25 W/m² | - |
| 1778108693 | 3.89° C | 52% | 1011.7 hPa | 0 mm | - | 28 W/m² | - |
| 1778108390 | 3.89° C | 51% | 1011.7 hPa | 0 mm | - | 31 W/m² | - |
| 1778108087 | 4.44° C | 51% | 1011.7 hPa | 0 mm | - | 31 W/m² | - |
| 1778107783 | 4.44° C | 51% | 1011.6 hPa | 0 mm | - | 33 W/m² | - |
| 1778107481 | 4.44° C | 51% | 1011.6 hPa | 0 mm | - | 35 W/m² | - |
* Rain latest hour (hover to see other rain measurements)
** Current wind speed in m/s (hover to see current wind gust speed)